User: anonymous   Login
Location: Trondheim
(63.4170°N, 10.4170°E)
Time: 07:27:28
(UTC+02:00)
Language:

Iridium 82 - Orbit

View from above orbital plane
View from above orbital plane
View from above satellite
View from above satellite

Ground track
Ground track

The orbit data is extracted from the following two-line orbital elements,

1 25467U 98051A   18174.55690655 +.00000772 +00000-0 +55234-4 0  9998
2 25467 086.4018 211.0426 0182821 146.4859 214.8097 14.89914862042120
Epoch (UTC): 23 June 2018 13:21:56
Eccentricity: 0.0182821
inclination: 86.4018°
perigee height: 470 km
apogee height: 726 km
right ascension of ascending node: 211.0426°
argument of perigee: 146.4859°
revolutions per day: 14.89914862
mean anomaly at epoch: 214.8097°
orbit number at epoch: 4212

The dashed part of the orbit path shows where the satellite is in the earth's shadow,  

DLR